{"data":{"norad_id":53634,"epoch":"2026-05-24T23:29:13.977600Z","epoch_age_seconds":73914,"freshness":"FRESH","line1":"1 53634U 22104AY  26144.97863400  .00002318  00000+0  16371-3 0  9998","line2":"2 53634  53.2159 241.5527 0001137  90.4541 269.6581 15.08835850207749","mean_motion":15.0883585,"eccentricity":0.0001137,"inclination_deg":53.2159,"raan_deg":241.5527,"arg_perigee_deg":90.4541,"mean_anomaly_deg":269.6581,"bstar":0.00016371,"rev_number":20774,"period_min":95.437817175407,"perigee_km":538.96950944045,"apogee_km":540.54263832545,"semimajor_km":6917.8930738829,"source":"CELESTRAK","updated_at":"2026-05-25T13:38:17.482286Z"}}